WB6TTB Weather Reports


Display with metric or nautical units.
time (UTC)temp
F
wind
direction
speed
MPH
gust
MPH
rain 1hr
in
rain 24hr
in
rain mn
in
humidity
%
barometer
mb
20260508235404 68 0 0.0 0.0 0.00 0.00 0.00 73 1015.2
20260508234803 68 0 0.0 0.0 0.00 0.00 0.00 72 1015.2
20260508234203 69 0 0.0 0.0 0.00 0.00 0.00 72 1015.2
20260508233003 68 0 0.0 0.0 0.00 0.00 0.00 73 1015.4
20260508232403 67 0 0.0 0.0 0.00 0.00 0.00 75 1015.4
20260508190004 61 0 0.0 0.0 0.00 0.00 0.00 83 1017.9
20260508173004 57 0 0.0 0.0 0.00 0.00 0.00 85 1018.1
20260508163604 54 0 0.0 0.0 0.00 0.00 0.00 89 1018.1
20260508161203 55 0 0.0 0.0 0.00 0.00 0.00 88 1018.0
20260508152403 54 0 0.0 0.0 0.00 0.00 0.00 89 1017.8
20260508144803 52 0 0.0 0.0 0.00 0.00 0.00 94 1017.7
20260508131203 50 0 0.0 0.0 0.00 0.00 0.00 94 1017.0
20260508121204 51 0 0.0 0.0 0.00 0.00 0.00 95 1016.9
20260508103004 51 0 0.0 0.0 0.00 0.00 0.00 95 1017.0
20260508091203 51 0 0.0 0.0 0.00 0.00 0.00 95 1017.0
20260508084203 51 0 0.0 0.0 0.00 0.00 0.00 95 1017.0
20260508081803 52 0 0.0 0.0 0.00 0.00 0.00 94 1017.0
20260508080004 52 0 0.0 0.0 0.00 0.00 0.00 94 1017.1
20260508070004 52 0 0.0 0.0 0.00 0.00 0.00 95 1017.0
20260508065403 52 0 0.0 0.0 0.00 0.00 0.00 95 1017.0
20260508061803 52 0 0.0 0.0 0.00 0.00 0.00 95 1016.9
20260508054804 52 0 0.0 0.0 0.00 0.00 0.00 96 1017.0
20260508043003 53 0 0.0 0.0 0.00 0.00 0.00 95 1016.6
20260508041203 53 0 0.0 0.0 0.00 0.00 0.00 94 1016.4
20260508034803 54 0 0.0 0.0 0.00 0.00 0.00 94 1016.2
20260508033604 54 0 0.0 0.0 0.00 0.00 0.00 93 1016.1
20260508014203 62 0 0.0 0.0 0.00 0.00 0.00 82 1015.8
20260508012404 63 0 0.0 0.0 0.00 0.00 0.00 80 1015.8